Time,TemperatureF,DewpointF,PressureIn,WindDirection,WindDirectionDegrees,WindSpeedMPH,WindSpeedGustMPH,Humidity,HourlyPrecipIn,Conditions,Clouds,dailyrainin,SoftwareType,DateUTC
2013-03-21 00:04:00,54.1,25.0,29.66,NW,326,0.0,-999.0,32,-99.99,,,0.00,weatherlink.com 1.10,2013-03-21 06:04:00,
2013-03-21 00:19:00,53.5,25.0,29.64,NW,326,0.0,-999.0,33,-99.99,,,0.00,weatherlink.com 1.10,2013-03-21 06:19:00,
2013-03-21 00:34:00,52.9,26.0,29.64,NW,326,0.0,-999.0,36,-99.99,,,0.00,weatherlink.com 1.10,2013-03-21 06:34:00,
2013-03-21 00:49:00,52.3,27.0,29.64,NW,326,0.0,-999.0,37,-99.99,,,0.00,weatherlink.com 1.10,2013-03-21 06:49:00,
2013-03-21 01:04:00,52.3,26.0,29.64,NW,326,0.0,-999.0,36,-99.99,,,0.00,weatherlink.com 1.10,2013-03-21 07:04:00,
2013-03-21 01:19:00,52.2,26.0,29.63,NW,326,0.0,-999.0,36,-99.99,,,0.00,weatherlink.com 1.10,2013-03-21 07:19:00,
2013-03-21 01:34:00,52.0,26.0,29.62,NW,326,0.0,-999.0,36,-99.99,,,0.00,weatherlink.com 1.10,2013-03-21 07:34:00,
2013-03-21 01:49:00,51.7,26.0,29.62,NW,326,0.0,-999.0,37,-99.99,,,0.00,weatherlink.com 1.10,2013-03-21 07:49:00,
2013-03-21 02:04:00,51.6,25.0,29.62,NW,326,0.0,-999.0,36,-99.99,,,0.00,weatherlink.com 1.10,2013-03-21 08:04:00,
2013-03-21 02:19:00,51.1,25.0,29.61,NW,326,0.0,-999.0,37,-99.99,,,0.00,weatherlink.com 1.10,2013-03-21 08:19:00,
2013-03-21 02:34:00,50.7,25.0,29.61,NW,326,0.0,-999.0,37,-99.99,,,0.00,weatherlink.com 1.10,2013-03-21 08:34:00,
2013-03-21 02:49:00,50.2,25.0,29.61,NW,326,0.0,-999.0,38,-99.99,,,0.00,weatherlink.com 1.10,2013-03-21 08:49:00,
2013-03-21 03:04:00,49.9,26.0,29.61,NW,326,0.0,-999.0,40,-99.99,,,0.00,weatherlink.com 1.10,2013-03-21 09:04:00,
2013-03-21 03:19:00,49.5,26.0,29.58,NW,326,0.0,-999.0,40,-99.99,,,0.00,weatherlink.com 1.10,2013-03-21 09:19:00,
2013-03-21 03:34:00,49.1,27.0,29.59,NW,326,0.0,-999.0,42,-99.99,,,0.00,weatherlink.com 1.10,2013-03-21 09:34:00,
2013-03-21 03:49:00,48.3,26.0,29.58,NW,326,0.0,-999.0,42,-99.99,,,0.00,weatherlink.com 1.10,2013-03-21 09:49:00,
2013-03-21 04:04:00,47.9,26.0,29.57,NW,326,0.0,-999.0,43,-99.99,,,0.00,weatherlink.com 1.10,2013-03-21 10:04:00,
2013-03-21 04:19:00,48.2,25.0,29.58,NW,326,0.0,-999.0,40,-99.99,,,0.00,weatherlink.com 1.10,2013-03-21 10:19:00,
2013-03-21 04:34:00,49.1,24.0,29.56,NW,326,1.0,-999.0,38,-99.99,,,0.00,weatherlink.com 1.10,2013-03-21 10:34:00,
2013-03-21 04:49:00,49.8,25.0,29.56,NW,326,0.0,-999.0,38,-99.99,,,0.00,weatherlink.com 1.10,2013-03-21 10:49:00,
2013-03-21 05:04:00,50.7,24.0,29.55,NW,322,0.0,-999.0,35,-99.99,,,0.00,weatherlink.com 1.10,2013-03-21 11:04:00,
2013-03-21 05:19:00,52.0,24.0,29.56,NW,319,0.0,-999.0,33,-99.99,,,0.00,weatherlink.com 1.10,2013-03-21 11:19:00,
2013-03-21 05:34:00,53.1,24.0,29.55,SW,215,0.0,-999.0,32,-99.99,,,0.00,weatherlink.com 1.10,2013-03-21 11:34:00,
2013-03-21 05:49:00,52.9,24.0,29.55,SW,215,0.0,-999.0,32,-99.99,,,0.00,weatherlink.com 1.10,2013-03-21 11:49:00,
2013-03-21 06:04:00,52.2,24.0,29.55,SW,230,0.0,-999.0,33,-99.99,,,0.00,weatherlink.com 1.10,2013-03-21 12:04:00,
2013-03-21 06:19:00,51.1,25.0,29.57,SW,220,1.0,-999.0,36,-99.99,,,0.00,weatherlink.com 1.10,2013-03-21 12:19:00,
2013-03-21 06:34:00,51.0,24.0,29.57,SW,220,0.0,-999.0,35,-99.99,,,0.00,weatherlink.com 1.10,2013-03-21 12:34:00,
2013-03-21 06:49:00,51.9,26.0,29.57,West,260,0.0,-999.0,36,-99.99,,,0.00,weatherlink.com 1.10,2013-03-21 12:49:00,
2013-03-21 07:04:00,52.6,25.0,29.56,WNW,289,2.0,-999.0,35,-99.99,,,0.00,weatherlink.com 1.10,2013-03-21 13:04:00,
2013-03-21 07:19:00,52.5,26.0,29.57,NNW,335,1.0,-999.0,36,-99.99,,,0.00,weatherlink.com 1.10,2013-03-21 13:19:00,
2013-03-21 07:34:00,51.9,26.0,29.59,NNW,335,0.0,-999.0,36,-99.99,,,0.00,weatherlink.com 1.10,2013-03-21 13:34:00,
2013-03-21 07:49:00,51.4,28.0,29.60,NNW,332,3.0,-999.0,41,-99.99,,,0.00,weatherlink.com 1.10,2013-03-21 13:49:00,
2013-03-21 08:04:00,52.0,29.0,29.59,NW,322,7.0,-999.0,42,-99.99,,,0.00,weatherlink.com 1.10,2013-03-21 14:04:00,
2013-03-21 08:19:00,52.8,29.0,29.59,NW,326,8.0,-999.0,41,-99.99,,,0.00,weatherlink.com 1.10,2013-03-21 14:19:00,
2013-03-21 08:34:00,53.6,28.0,29.59,NW,306,2.0,-999.0,38,-99.99,,,0.00,weatherlink.com 1.10,2013-03-21 14:34:00,
2013-03-21 08:49:00,54.5,28.0,29.59,WSW,246,1.0,-999.0,37,-99.99,,,0.00,weatherlink.com 1.10,2013-03-21 14:49:00,
2013-03-21 09:19:00,55.4,29.0,29.59,NNW,332,8.0,-999.0,36,-99.99,,,0.00,weatherlink.com 1.10,2013-03-21 15:19:00,
2013-03-21 09:34:00,56.9,29.0,29.58,West,267,1.0,-999.0,35,-99.99,,,0.00,weatherlink.com 1.10,2013-03-21 15:34:00,
2013-03-21 09:50:00,58.1,30.0,29.57,NW,309,6.0,-999.0,34,-99.99,,,0.00,weatherlink.com 1.10,2013-03-21 15:50:00,
2013-03-21 10:05:00,58.6,30.0,29.57,NNW,342,2.0,-999.0,34,-99.99,,,0.00,weatherlink.com 1.10,2013-03-21 16:05:00,
2013-03-21 10:20:00,60.4,30.0,29.56,NW,313,1.0,-999.0,32,-99.99,,,0.00,weatherlink.com 1.10,2013-03-21 16:20:00,
2013-03-21 10:35:00,61.6,29.0,29.55,NNW,333,3.0,-999.0,29,-99.99,,,0.00,weatherlink.com 1.10,2013-03-21 16:35:00,
2013-03-21 10:50:00,62.9,29.0,29.53,WSW,247,7.0,-999.0,28,-99.99,,,0.00,weatherlink.com 1.10,2013-03-21 16:50:00,
2013-03-21 11:05:00,63.9,30.0,29.52,WNW,301,1.0,-999.0,28,-99.99,,,0.00,weatherlink.com 1.10,2013-03-21 17:05:00,
2013-03-21 11:20:00,65.5,28.0,29.52,NW,306,6.0,-999.0,24,-99.99,,,0.00,weatherlink.com 1.10,2013-03-21 17:20:00,
2013-03-21 11:35:00,66.3,28.0,29.50,North,350,2.0,-999.0,24,-99.99,,,0.00,weatherlink.com 1.10,2013-03-21 17:35:00,
2013-03-21 11:50:00,67.1,26.0,29.50,WNW,302,2.0,-999.0,21,-99.99,,,0.00,weatherlink.com 1.10,2013-03-21 17:50:00,
2013-03-21 12:05:00,67.9,24.0,29.47,NW,304,6.0,-999.0,19,-99.99,,,0.00,weatherlink.com 1.10,2013-03-21 18:05:00,
2013-03-21 12:19:00,68.8,23.0,29.47,NW,315,6.0,-999.0,18,-99.99,,,0.00,weatherlink.com 1.10,2013-03-21 18:19:00,
2013-03-21 12:35:00,69.8,23.0,29.46,WNW,292,7.0,-999.0,17,-99.99,,,0.00,weatherlink.com 1.10,2013-03-21 18:35:00,
2013-03-21 12:50:00,72.1,20.0,29.45,SW,223,0.0,-999.0,14,-99.99,,,0.00,weatherlink.com 1.10,2013-03-21 18:50:00,
2013-03-21 13:05:00,72.1,15.0,29.43,WNW,295,2.0,-999.0,11,-99.99,,,0.00,weatherlink.com 1.10,2013-03-21 19:05:00,
2013-03-21 13:20:00,72.1,17.0,29.42,SSW,192,8.0,-999.0,12,-99.99,,,0.00,weatherlink.com 1.10,2013-03-21 19:20:00,
2013-03-21 13:35:00,72.7,15.0,29.41,SSW,210,4.0,-999.0,11,-99.99,,,0.00,weatherlink.com 1.10,2013-03-21 19:35:00,
2013-03-21 13:50:00,73.5,11.0,29.41,WNW,301,4.0,-999.0,9,-99.99,,,0.00,weatherlink.com 1.10,2013-03-21 19:50:00,
2013-03-21 14:05:00,73.9,14.0,29.39,NNE,16,0.0,-999.0,10,-99.99,,,0.00,weatherlink.com 1.10,2013-03-21 20:05:00,
2013-03-21 14:20:00,74.0,14.0,29.40,West,281,3.0,-999.0,10,-99.99,,,0.00,weatherlink.com 1.10,2013-03-21 20:20:00,
2013-03-21 14:35:00,74.6,6.0,29.38,NNW,344,11.0,-999.0,7,-99.99,,,0.00,weatherlink.com 1.10,2013-03-21 20:35:00,
2013-03-21 14:50:00,74.6,9.0,29.38,NW,320,3.0,-999.0,8,-99.99,,,0.00,weatherlink.com 1.10,2013-03-21 20:50:00,
2013-03-21 15:05:00,75.4,7.0,29.37,WNW,299,6.0,-999.0,7,-99.99,,,0.00,weatherlink.com 1.10,2013-03-21 21:05:00,
2013-03-21 15:21:00,74.7,6.0,29.37,WNW,291,3.0,-999.0,7,-99.99,,,0.00,weatherlink.com 1.10,2013-03-21 21:21:00,
2013-03-21 15:36:00,74.9,7.0,29.37,WNW,295,5.0,-999.0,7,-99.99,,,0.00,weatherlink.com 1.10,2013-03-21 21:36:00,
2013-03-21 15:51:00,74.2,6.0,29.37,NNW,332,0.0,-999.0,7,-99.99,,,0.00,weatherlink.com 1.10,2013-03-21 21:51:00,
2013-03-21 16:06:00,74.4,3.0,29.37,WNW,291,7.0,-999.0,6,-99.99,,,0.00,weatherlink.com 1.10,2013-03-21 22:06:00,
2013-03-21 16:21:00,74.0,-1.0,29.36,WNW,285,14.0,-999.0,5,-99.99,,,0.00,weatherlink.com 1.10,2013-03-21 22:21:00,
2013-03-21 16:36:00,73.5,2.0,29.36,NNW,335,11.0,-999.0,6,-99.99,,,0.00,weatherlink.com 1.10,2013-03-21 22:36:00,
2013-03-21 17:06:00,74.0,3.0,29.36,NW,316,3.0,-999.0,6,-99.99,,,0.00,weatherlink.com 1.10,2013-03-21 23:06:00,
2013-03-21 17:21:00,73.0,2.0,29.36,NW,306,9.0,-999.0,6,-99.99,,,0.00,weatherlink.com 1.10,2013-03-21 23:21:00,
2013-03-21 17:36:00,72.5,1.0,29.36,NNW,343,5.0,-999.0,6,-99.99,,,0.00,weatherlink.com 1.10,2013-03-21 23:36:00,
2013-03-21 17:51:00,71.8,4.0,29.37,NNW,332,2.0,-999.0,7,-99.99,,,0.00,weatherlink.com 1.10,2013-03-21 23:51:00,
2013-03-21 18:06:00,71.1,4.0,29.37,North,0,2.0,-999.0,7,-99.99,,,0.00,weatherlink.com 1.10,2013-03-22 00:06:00,
2013-03-21 18:21:00,69.9,3.0,29.38,WNW,299,1.0,-999.0,7,-99.99,,,0.00,weatherlink.com 1.10,2013-03-22 00:21:00,
2013-03-21 18:51:00,67.6,4.0,29.41,NNW,332,3.0,-999.0,8,-99.99,,,0.00,weatherlink.com 1.10,2013-03-22 00:51:00,
2013-03-21 19:06:00,66.4,3.0,29.41,NNW,336,3.0,-999.0,8,-99.99,,,0.00,weatherlink.com 1.10,2013-03-22 01:06:00,
2013-03-21 19:22:00,65.5,5.0,29.43,NNW,336,3.0,-999.0,9,-99.99,,,0.00,weatherlink.com 1.10,2013-03-22 01:22:00,
2013-03-21 19:37:00,64.2,6.0,29.45,North,352,6.0,-999.0,10,-99.99,,,0.00,weatherlink.com 1.10,2013-03-22 01:37:00,
2013-03-21 19:52:00,63.2,8.0,29.45,North,3,3.0,-999.0,11,-99.99,,,0.00,weatherlink.com 1.10,2013-03-22 01:52:00,
2013-03-21 20:07:00,62.3,7.0,29.47,North,0,3.0,-999.0,11,-99.99,,,0.00,weatherlink.com 1.10,2013-03-22 02:07:00,
2013-03-21 20:22:00,61.5,8.0,29.47,North,0,1.0,-999.0,12,-99.99,,,0.00,weatherlink.com 1.10,2013-03-22 02:22:00,
2013-03-21 20:37:00,60.7,8.0,29.47,NNW,333,5.0,-999.0,12,-99.99,,,0.00,weatherlink.com 1.10,2013-03-22 02:37:00,
2013-03-21 20:52:00,59.9,9.0,29.49,North,349,2.0,-999.0,13,-99.99,,,0.00,weatherlink.com 1.10,2013-03-22 02:52:00,
2013-03-21 21:07:00,59.3,8.0,29.50,NNW,344,1.0,-999.0,13,-99.99,,,0.00,weatherlink.com 1.10,2013-03-22 03:07:00,
2013-03-21 21:22:00,58.9,10.0,29.50,NNW,328,3.0,-999.0,14,-99.99,,,0.00,weatherlink.com 1.10,2013-03-22 03:22:00,
2013-03-21 21:37:00,58.4,9.0,29.50,NNW,339,1.0,-999.0,14,-99.99,,,0.00,weatherlink.com 1.10,2013-03-22 03:37:00,
2013-03-21 21:52:00,57.5,8.0,29.50,NNW,336,0.0,-999.0,14,-99.99,,,0.00,weatherlink.com 1.10,2013-03-22 03:52:00,
2013-03-21 22:07:00,56.0,9.0,29.52,NNW,335,1.0,-999.0,15,-99.99,,,0.00,weatherlink.com 1.10,2013-03-22 04:07:00,
2013-03-21 22:22:00,54.7,8.0,29.50,NNW,335,0.0,-999.0,15,-99.99,,,0.00,weatherlink.com 1.10,2013-03-22 04:22:00,
2013-03-21 22:37:00,52.8,9.0,29.51,NNW,335,0.0,-999.0,17,-99.99,,,0.00,weatherlink.com 1.10,2013-03-22 04:37:00,
2013-03-21 22:53:00,50.5,11.0,29.52,NNW,335,0.0,-999.0,20,-99.99,,,0.00,weatherlink.com 1.10,2013-03-22 04:53:00,
2013-03-21 23:08:00,48.9,9.0,29.53,NNW,335,0.0,-999.0,20,-99.99,,,0.00,weatherlink.com 1.10,2013-03-22 05:08:00,
2013-03-21 23:23:00,47.6,11.0,29.52,NNW,335,0.0,-999.0,23,-99.99,,,0.00,weatherlink.com 1.10,2013-03-22 05:23:00,
2013-03-21 23:38:00,46.1,10.0,29.53,NNW,335,0.0,-999.0,23,-99.99,,,0.00,weatherlink.com 1.10,2013-03-22 05:38:00,
2013-03-21 23:53:00,45.4,7.0,29.53,NNW,335,0.0,-999.0,21,-99.99,,,0.00,weatherlink.com 1.10,2013-03-22 05:53:00,